Location: Buchberg
(46.9333°N, 15.8500°E)
Time: 09:37:43
(UTC+00:00)

Cosmos 2082 Rocket - Pass Details

Date: 14 July 2020
Orbit: 833 x 853 km, 71.0° (Epoch: 07 August)

Event Time Altitude Azimuth Distance (km) Brightness Sun altitude
Exits shadow 02:22:40 - 232° (SW) 2,522 4.0 -8.0°
Reaches altitude 10° 02:22:47 10° 233° (SW) 2,479 4.0 -8.0°
Maximum altitude 02:28:13 44° 305° (NW) 1,168 2.9 -7.3°
Drops below altitude 10° 02:33:40 10° 17° (NNE) 2,488 5.7 -6.6°
Sets 02:36:15 0° 24° (NNE) 3,425 6.7 -6.3°
